Weather in Serrai

Greece     41°05′24″N   23°33′08″E
temp.,
°C
wind,
m/s
gust,
m/s
humid.,
%
clouds,
%
prec.,
mm/h
press.,
hPa
HPBL,
m
5 march, fri
fri523:00+9wnw01650 0.0 101922
02:00+8nw117011 0.0 101822
05:00+7w017219 0.0 101722
08:00+8nw007210 0.0 101722
11:00+14e01555 0.0 1017410
14:00+17ne114436 0.0 1015770
17:00+18w12413 0.0 1015840
20:00+11se015835 0.0 101623
6 march, sat
sat623:00+10e016257 0.0 101822
02:00+10n006778 0.0 101922
05:00+9w1170100 0.0 101922
08:00+10nne0170100 0.0 102022
11:00+14nw2251100 0.0 1021521
14:00+17nw343579 0.0 10211482
17:00+16wnw45460 0.0 1021649
20:00+11nw12630 0.1 102439
7 march, sun
sun723:00+9s127929 0.6 1027103
02:00+8sse228164 1.8 1028217
05:00+7sse1288100 1.8 1028305
08:00+6sse1290100 3.9 1029306
11:00+6ese1289100 1.9 1028285
14:00+6ese3389100 2.8 1026328
17:00+6ese2387100 0.1 1023294
20:00+6ene119097 0.1 102380
8 march, mon
mon823:00+5nne009183 0.0 102324
02:00+6s018986 0.0 102248
05:00+4w009286 0.0 102022
08:00+6sse118789 0.0 101998
11:00+10e117476 0.0 1019503
14:00+13wnw126371 0.1 1017988
17:00+12sse0162100 0.0 1015790
20:00+8e128283 0.0 101632
9 march, tue
tue923:00+7n01850 0.0 101722
02:00+7nw018724 0.0 101622
05:00+7s008678 0.0 101622
08:00+8ese128489 0.0 101694
11:00+9ene1277100 0.0 1017290
14:00+10nne127798 0.1 1016426
17:00+10ene127999 0.1 1016300
20:00+9ese128198 0.2 101772